When you browse on this site, cookies collect data to enhance your experience and personalize the content and advertising you see.
Visit our Privacy Policy to learn more. By continuing to use the site, you agree to this use of cookies and data.
  • în România
  • Lista ţărilor
  • Pe 7 zile
  • Temperatura apei
  • Meteo pe hartă
  • Widget-uri
  • user-avatar
    Intrare

    Meteo pe oră la Georgetown

    Astăzi, 23 Ianuarie, Joi

    Timp Temperatura Precipitaţii Vânt Presiune Umiditate
    00:00 +21°C° 0 mm 10 m/s 737 mmHg 29%
    01:00 +21°C° 0 mm 10 m/s 737 mmHg 29%
    02:00 +21°C° 0 mm 11 m/s 737 mmHg 30%
    03:00 +19°C° 0 mm 11 m/s 737 mmHg 30%
    04:00 +19°C° 0 mm 11 m/s 736 mmHg 31%
    05:00 +19°C° 0 mm 11 m/s 737 mmHg 32%
    06:00 +18°C° 0 mm 11 m/s 738 mmHg 33%
    07:00 +18°C° 0 mm 11 m/s 738 mmHg 34%
    08:00 +21°C° 0 mm 12 m/s 739 mmHg 31%
    09:00 +22°C° 0 mm 12 m/s 739 mmHg 29%
    10:00 +24°C° 0 mm 12 m/s 739 mmHg 26%
    11:00 +26°C° 0 mm 10 m/s 739 mmHg 26%
    12:00 +27°C° 0 mm 9 m/s 738 mmHg 25%
    13:00 +28°C° 0 mm 8 m/s 737 mmHg 25%
    14:00 +29°C° 0 mm 7 m/s 737 mmHg 25%
    15:00 +29°C° 0 mm 6 m/s 736 mmHg 26%
    16:00 +29°C° 0 mm 5 m/s 736 mmHg 27%
    17:00 +28°C° 0 mm 6 m/s 736 mmHg 27%
    18:00 +27°C° 0 mm 6 m/s 737 mmHg 27%
    19:00 +24°C° 0 mm 7 m/s 737 mmHg 27%
    20:00 +24°C° 0 mm 8 m/s 737 mmHg 27%
    21:00 +23°C° 0 mm 9 m/s 738 mmHg 26%
    22:00 +22°C° 0 mm 10 m/s 739 mmHg 26%
    23:00 +21°C° 0 mm 10 m/s 738 mmHg 26%

    Mâine, 24 Ianuarie, Vineri

    Timp Temperatura Precipitaţii Vânt Presiune Umiditate
    00:00 +21°C° 0 mm 11 m/s 738 mmHg 27%
    01:00 +19°C° 0 mm 11 m/s 737 mmHg 28%
    02:00 +19°C° 0 mm 12 m/s 737 mmHg 28%
    03:00 +19°C° 0 mm 12 m/s 737 mmHg 29%
    04:00 +18°C° 0 mm 12 m/s 737 mmHg 29%
    05:00 +18°C° 0 mm 12 m/s 738 mmHg 30%
    06:00 +18°C° 0 mm 12 m/s 738 mmHg 31%
    07:00 +17°C° 0 mm 12 m/s 738 mmHg 31%
    08:00 +19°C° 0 mm 12 m/s 739 mmHg 30%
    09:00 +21°C° 0 mm 11 m/s 739 mmHg 28%
    10:00 +23°C° 0 mm 11 m/s 740 mmHg 26%
    11:00 +24°C° 0 mm 10 m/s 739 mmHg 25%
    12:00 +26°C° 0 mm 9 m/s 739 mmHg 25%
    13:00 +27°C° 0 mm 8 m/s 738 mmHg 25%
    14:00 +27°C° 0 mm 8 m/s 738 mmHg 25%
    15:00 +28°C° 0 mm 7 m/s 737 mmHg 25%
    16:00 +28°C° 0 mm 6 m/s 737 mmHg 25%
    17:00 +27°C° 0 mm 7 m/s 737 mmHg 25%
    18:00 +24°C° 0 mm 7 m/s 737 mmHg 25%
    19:00 +23°C° 0 mm 7 m/s 738 mmHg 26%
    20:00 +22°C° 0 mm 8 m/s 738 mmHg 25%
    21:00 +21°C° 0 mm 9 m/s 738 mmHg 25%
    22:00 +21°C° 0 mm 10 m/s 738 mmHg 25%
    23:00 +19°C° 0 mm 10 m/s 738 mmHg 26%

    Poimâine, 25 Ianuarie, Sâmbătă

    Timp Temperatura Precipitaţii Vânt Presiune Umiditate
    00:00 +18°C° 0 mm 10 m/s 738 mmHg 27%
    01:00 +18°C° 0 mm 10 m/s 738 mmHg 28%
    02:00 +17°C° 0 mm 11 m/s 738 mmHg 29%
    03:00 +17°C° 0 mm 11 m/s 738 mmHg 30%
    04:00 +17°C° 0 mm 11 m/s 738 mmHg 30%
    05:00 +17°C° 0 mm 11 m/s 738 mmHg 31%
    06:00 +17°C° 0 mm 12 m/s 738 mmHg 31%
    07:00 +17°C° 0 mm 12 m/s 739 mmHg 32%
    08:00 +18°C° 0 mm 12 m/s 739 mmHg 30%
    09:00 +21°C° 0 mm 12 m/s 739 mmHg 27%
    10:00 +23°C° 0 mm 12 m/s 740 mmHg 25%
    11:00 +24°C° 0 mm 11 m/s 739 mmHg 25%
    12:00 +26°C° 0 mm 10 m/s 739 mmHg 25%
    13:00 +27°C° 0 mm 9 m/s 738 mmHg 25%
    14:00 +27°C° 0 mm 8 m/s 737 mmHg 25%
    15:00 +28°C° 0 mm 7 m/s 737 mmHg 25%
    16:00 +28°C° 0 mm 6 m/s 736 mmHg 25%
    17:00 +27°C° 0 mm 6 m/s 736 mmHg 26%
    18:00 +24°C° 0 mm 7 m/s 737 mmHg 26%
    19:00 +23°C° 0 mm 7 m/s 737 mmHg 27%
    20:00 +22°C° 0 mm 8 m/s 737 mmHg 27%
    21:00 +21°C° 0 mm 9 m/s 738 mmHg 26%
    22:00 +21°C° 0 mm 10 m/s 738 mmHg 26%
    23:00 +19°C° 0 mm 10 m/s 738 mmHg 27%

    26 Ianuarie, Duminică

    Timp Temperatura Precipitaţii Vânt Presiune Umiditate
    00:00 +18°C° 0 mm 10 m/s 737 mmHg 28%
    01:00 +18°C° 0 mm 10 m/s 737 mmHg 30%
    02:00 +17°C° 0 mm 10 m/s 737 mmHg 30%
    03:00 +17°C° 0 mm 10 m/s 737 mmHg 31%
    04:00 +16°C° 0 mm 10 m/s 737 mmHg 32%
    05:00 +16°C° 0 mm 10 m/s 737 mmHg 32%
    06:00 +16°C° 0 mm 10 m/s 738 mmHg 33%
    07:00 +16°C° 0 mm 10 m/s 738 mmHg 34%
    08:00 +18°C° 0 mm 10 m/s 738 mmHg 32%
    09:00 +19°C° 0 mm 10 m/s 739 mmHg 29%
    10:00 +22°C° 0 mm 10 m/s 739 mmHg 27%
    11:00 +24°C° 0 mm 9 m/s 738 mmHg 27%
    12:00 +26°C° 0 mm 8 m/s 738 mmHg 27%
    13:00 +27°C° 0 mm 7 m/s 737 mmHg 27%
    14:00 +28°C° 0 mm 5 m/s 736 mmHg 28%
    15:00 +28°C° 0 mm 4 m/s 736 mmHg 29%
    16:00 +28°C° 0 mm 2 m/s 735 mmHg 30%
    17:00 +27°C° 0 mm 3 m/s 735 mmHg 31%
    18:00 +26°C° 0 mm 3 m/s 736 mmHg 33%
    19:00 +24°C° 0 mm 3 m/s 736 mmHg 34%
    20:00 +23°C° 0 mm 5 m/s 736 mmHg 32%
    21:00 +22°C° 0 mm 6 m/s 737 mmHg 30%
    22:00 +21°C° 0 mm 8 m/s 737 mmHg 28%
    23:00 +21°C° 0 mm 8 m/s 737 mmHg 28%

    27 Ianuarie, Luni

    Timp Temperatura Precipitaţii Vânt Presiune Umiditate
    00:00 +19°C° 0 mm 9 m/s 737 mmHg 28%
    01:00 +18°C° 0 mm 9 m/s 737 mmHg 29%
    02:00 +18°C° 0 mm 9 m/s 736 mmHg 30%
    03:00 +17°C° 0 mm 9 m/s 736 mmHg 31%
    04:00 +17°C° 0 mm 8 m/s 736 mmHg 32%
    05:00 +17°C° 0 mm 9 m/s 736 mmHg 33%
    06:00 +16°C° 0 mm 9 m/s 737 mmHg 33%
    07:00 +16°C° 0 mm 9 m/s 737 mmHg 34%
    08:00 +18°C° 0 mm 8 m/s 737 mmHg 30%
    09:00 +22°C° 0 mm 8 m/s 737 mmHg 27%
    10:00 +24°C° 0 mm 7 m/s 738 mmHg 23%
    11:00 +26°C° 0 mm 6 m/s 737 mmHg 24%
    12:00 +27°C° 0 mm 4 m/s 737 mmHg 25%
    13:00 +28°C° 0 mm 3 m/s 736 mmHg 26%
    14:00 +28°C° 0 mm 2 m/s 736 mmHg 27%
    15:00 +28°C° 0 mm 2 m/s 735 mmHg 27%
    16:00 +28°C° 0 mm 1 m/s 734 mmHg 28%
    17:00 +26°C° 0 mm 2 m/s 734 mmHg 33%
    18:00 +25°C° 0 mm 2 m/s 734 mmHg 39%
    19:00 +22°C° 0 mm 3 m/s 735 mmHg 44%
    20:00 +22°C° 0 mm 4 m/s 735 mmHg 40%
    21:00 +22°C° 0 mm 4 m/s 736 mmHg 35%
    22:00 +22°C° 0 mm 5 m/s 736 mmHg 30%
    23:00 +21°C° 0 mm 6 m/s 736 mmHg 28%

    28 Ianuarie, Marţi

    Timp Temperatura Precipitaţii Vânt Presiune Umiditate
    00:00 +21°C° 0 mm 6 m/s 736 mmHg 26%
    01:00 +20°C° 0 mm 7 m/s 736 mmHg 24%
    02:00 +20°C° 0 mm 7 m/s 735 mmHg 24%
    03:00 +18°C° 0 mm 7 m/s 735 mmHg 25%
    04:00 +18°C° 0 mm 7 m/s 735 mmHg 25%
    05:00 +18°C° 0 mm 7 m/s 735 mmHg 25%
    06:00 +18°C° 0 mm 7 m/s 736 mmHg 26%
    07:00 +17°C° 0 mm 7 m/s 736 mmHg 26%
    08:00 +20°C° 0 mm 7 m/s 736 mmHg 24%
    09:00 +23°C° 0 mm 7 m/s 737 mmHg 22%
    10:00 +26°C° 0 mm 6 m/s 737 mmHg 20%
    11:00 +27°C° 0 mm 5 m/s 736 mmHg 22%
    12:00 +28°C° 0 mm 3 m/s 736 mmHg 24%
    13:00 +29°C° 0 mm 1 m/s 735 mmHg 25%
    14:00 +29°C° 0 mm 2 m/s 735 mmHg 26%
    15:00 +29°C° 0 mm 2 m/s 734 mmHg 27%
    16:00 +28°C° 0 mm 2 m/s 734 mmHg 28%
    17:00 +27°C° 0 mm 3 m/s 734 mmHg 33%
    18:00 +25°C° 0 mm 3 m/s 734 mmHg 38%
    19:00 +24°C° 0 mm 3 m/s 735 mmHg 43%
    20:00 +23°C° 0 mm 4 m/s 735 mmHg 36%
    21:00 +23°C° 0 mm 4 m/s 735 mmHg 30%
    22:00 +22°C° 0 mm 5 m/s 736 mmHg 23%
    23:00 +22°C° 0 mm 5 m/s 736 mmHg 23%
    Arată mai mult